"Pseudo-MPEC" for P21Crzv

Created 2022 Dec 13 16:22:13 UT using Find_Orb

Click here for an explanation of pseudo-MPECs

 
 Astrometry: 
     P21Crzv* C2022 12 01jI(QyAstrometry](v'lX-L,cu,.:,+u2ti*[0redacted;Pk!ytF52
     P21Crzv  C2022 12 01,yWhu_5clickSlQYhereR:._#kbxX]gxlcSl]9ko(@.=MTH,,c:EF52
     P21Crzv  C2022 12 01@=k(oIe\e]41GA#^[nS=4a4ao\Gfory!sYl(ogexplanationd4%F52

Station data:
(F52) Pan-STARRS 2, Haleakala  (N20.707382 W156.255910)  US/Hawaii.
   Observers J. Bulger, T. Dukes, T. Lowe, A. Schultz, M. Willman. Measurers
   K. Chambers, S. Chastel, T. de Boer, L. Denneau, J. Fairlamb, H.
   Flewelling, M. Huber, C.-C. Lin, E. Magnier, Y. Ramanjooloo, R. Wainscoat,
   R. Weryk. 1.8-m Ritchey-Chrétien + CCD.

Orbital elements:  P21Crzv
   Perihelion 2023 Aug 21.45959 +/- 167 TT = 11:01:48 (JD 2460177.95959)
Epoch 2022 Dec  2.0 TT = JDT 2459915.5   Earth MOID: 0.3461   Ma: 0.0393
M 208.72532290 +/- 120              (J2000 ecliptic)             AutoNEOCP
n   0.57637321 +/- 0.305            Peri.  148.41091 +/- 90
a   1.42999171 +/- 0.505            Node    73.88738 +/- 32
e   0.0549210 +/- 0.277             Incl.   14.33932 +/- 27
P   1.71/624.58d           H 22.57  G  0.15   U 11.9  SR
q 1.35145508 +/- 0.622    Q 1.50852834 +/- 30.8
From 3 observations 2022 Dec. 1 (35.3 min); mean residual 0".05
Residuals in arcseconds: 
221201 F52  .01-  .04-    221201 F52  .03+  .09+    221201 F52  .01-  .04-    

Ephemerides (geocentric):
Date (UTC) HH   RA             Dec           delta  r     elong  mag " sig PA
---- --------  ------------   ------------  ------ ------ -----  --- --------
2022 12 13 16  03 56 03.775   +20 41 00.73  .53203 1.4953 159.9 22.9  32d 167
2022 12 13 17  03 55 59.032   +20 41 42.69  .53215 1.4953 159.8 22.9  32d 167
2022 12 13 18  03 55 54.294   +20 42 24.64  .53226 1.4953 159.8 22.9  32d 167
2022 12 13 19  03 55 49.561   +20 43 06.58  .53237 1.4953 159.7 22.9  32d 167
2022 12 13 20  03 55 44.832   +20 43 48.49  .53248 1.4953 159.7 22.9  32d 167
2022 12 13 21  03 55 40.109   +20 44 30.39  .53260 1.4952 159.6 22.9  32d 167
2022 12 13 22  03 55 35.390   +20 45 12.28  .53271 1.4952 159.6 22.9  32d 167
2022 12 13 23  03 55 30.676   +20 45 54.14  .53283 1.4952 159.5 22.9  32d 167
2022 12 14 00  03 55 25.966   +20 46 35.99  .53294 1.4952 159.4 22.9  32d 167
2022 12 14 01  03 55 21.262   +20 47 17.83  .53306 1.4952 159.4 22.9  32d 167
2022 12 14 02  03 55 16.562   +20 47 59.64  .53317 1.4952 159.3 22.9  32d 167
2022 12 14 03  03 55 11.868   +20 48 41.44  .53329 1.4951 159.3 22.9  32d 167
2022 12 14 04  03 55 07.178   +20 49 23.23  .53340 1.4951 159.2 22.9  32d 167
2022 12 14 05  03 55 02.493   +20 50 04.99  .53352 1.4951 159.1 22.9  32d 167
2022 12 14 06  03 54 57.813   +20 50 46.74  .53364 1.4951 159.1 22.9  32d 167
2022 12 14 07  03 54 53.138   +20 51 28.47  .53375 1.4951 159.0 22.9  32d 167
2022 12 14 08  03 54 48.468   +20 52 10.19  .53387 1.4950 159.0 22.9  32d 167
2022 12 14 09  03 54 43.802   +20 52 51.89  .53399 1.4950 158.9 22.9  32d 167
2022 12 14 10  03 54 39.142   +20 53 33.57  .53411 1.4950 158.9 22.9  32d 168
2022 12 14 11  03 54 34.487   +20 54 15.23  .53422 1.4950 158.8 22.9  32d 168
2022 12 14 12  03 54 29.837   +20 54 56.88  .53434 1.4950 158.7 22.9  32d 168
2022 12 14 13  03 54 25.191   +20 55 38.51  .53446 1.4950 158.7 22.9  32d 168
2022 12 14 14  03 54 20.551   +20 56 20.12  .53458 1.4949 158.6 22.9  32d 168
2022 12 14 15  03 54 15.916   +20 57 01.72  .53470 1.4949 158.6 22.9  32d 168
2022 12 14 16  03 54 11.286   +20 57 43.30  .53482 1.4949 158.5 22.9  32d 168
2022 12 14 17  03 54 06.661   +20 58 24.86  .53494 1.4949 158.5 22.9  32d 168
2022 12 14 18  03 54 02.041   +20 59 06.40  .53506 1.4949 158.4 22.9  32d 168
2022 12 14 19  03 53 57.426   +20 59 47.93  .53519 1.4949 158.3 22.9  32d 168
2022 12 14 20  03 53 52.816   +21 00 29.44  .53531 1.4948 158.3 22.9  33d 168
2022 12 14 21  03 53 48.211   +21 01 10.93  .53543 1.4948 158.2 22.9  33d 168
2022 12 14 22  03 53 43.611   +21 01 52.41  .53555 1.4948 158.2 22.9  33d 168
2022 12 14 23  03 53 39.017   +21 02 33.87  .53567 1.4948 158.1 22.9  33d 168
2022 12 15 00  03 53 34.428   +21 03 15.31  .53580 1.4948 158.0 22.9  33d 168
2022 12 15 01  03 53 29.843   +21 03 56.73  .53592 1.4947 158.0 22.9  33d 168
2022 12 15 02  03 53 25.264   +21 04 38.13  .53604 1.4947 157.9 22.9  33d 168
2022 12 15 03  03 53 20.691   +21 05 19.52  .53617 1.4947 157.9 22.9  33d 168
2022 12 15 04  03 53 16.122   +21 06 00.89  .53629 1.4947 157.8 22.9  33d 168
2022 12 15 05  03 53 11.559   +21 06 42.24  .53642 1.4947 157.8 23.0  33d 168
2022 12 15 06  03 53 07.000   +21 07 23.58  .53654 1.4947 157.7 23.0  33d 168
2022 12 15 07  03 53 02.447   +21 08 04.90  .53667 1.4946 157.6 23.0  33d 168
2022 12 15 08  03 52 57.900   +21 08 46.20  .53679 1.4946 157.6 23.0  33d 168
2022 12 15 09  03 52 53.357   +21 09 27.48  .53692 1.4946 157.5 23.0  33d 168
2022 12 15 10  03 52 48.820   +21 10 08.74  .53704 1.4946 157.5 23.0  33d 168
2022 12 15 11  03 52 44.288   +21 10 49.99  .53717 1.4946 157.4 23.0  33d 168
2022 12 15 12  03 52 39.762   +21 11 31.22  .53730 1.4946 157.4 23.0  33d 168
2022 12 15 13  03 52 35.241   +21 12 12.43  .53743 1.4945 157.3 23.0  33d 168
2022 12 15 14  03 52 30.725   +21 12 53.62  .53755 1.4945 157.2 23.0  33d 168
2022 12 15 15  03 52 26.214   +21 13 34.80  .53768 1.4945 157.2 23.0  33d 168